{"data":{"norad_id":52447,"intl_designator":"2022-048E","name":"JILIN-1 GAOFEN 3D30","alt_names":[],"object_type":"PAYLOAD","status":"ACTIVE","operator":null,"country":"PRC","launch_date":"2022-05-05","launch_site_code":"TAISC","launch_vehicle":null,"mission":null,"orbit_class":"UNKNOWN","rcs_meters":null,"size_class":null,"mass_kg":null,"dimensions":null,"purposes":[],"wikipedia_slug":null,"has_3d_model":false,"image_url":null,"decayed_at":null,"tle_current":{"epoch":"2026-05-25T04:08:08.815200Z","epoch_age_seconds":57374,"freshness":"FRESH","line1":"1 52447U 22048E   26145.17232425  .00231464  00000+0  95084-3 0  9990","line2":"2 52447  97.5643 260.5959 0003411 165.6099 194.5269 15.85390839226107","mean_motion":15.85390839,"eccentricity":0.0003411,"inclination_deg":97.5643,"raan_deg":260.5959,"arg_perigee_deg":165.6099,"mean_anomaly_deg":194.5269,"bstar":0.00095084,"rev_number":22610,"period_min":90.829337761803,"perigee_km":312.94134961887,"apogee_km":317.50756080362,"semimajor_km":6693.3614552112,"source":"CELESTRAK","updated_at":"2026-05-25T13:37:57.738698Z"}}}